Location: San Antonio
(29.4240°N, 98.4930°W)
Time: 21:41:32
(UTC-06:00)

ISS - All Passes

Search period start: 21 January 2017 00:00
Search period end: 31 January 2017 00:00
Orbit: 399 x 410 km, 51.6° (Epoch: 22 January)

Date Brightness Start Highest point End Pass type
(mag) Time Alt. Az. Time Alt. Az. Time Alt. Az.
21 Jan - 04:47:53 10° N 04:49:36 14° NE 04:51:19 10° ENE visible
21 Jan - 06:23:08 10° WNW 06:26:13 41° SW 06:29:17 10° SSE visible
21 Jan - 21:21:56 10° SW 21:25:11 73° NW 21:28:26 10° NE night (unlit)
22 Jan - 05:30:50 10° NW 05:34:04 77° NE 05:37:18 10° SE visible
22 Jan - 20:29:54 10° SSW 20:33:01 44° SE 20:36:09 10° ENE visible
22 Jan - 22:08:00 10° WNW 22:09:39 13° NW 22:11:18 10° N night (unlit)
23 Jan - 04:38:52 10° NNW 04:41:50 32° NE 04:44:47 10° ESE visible
23 Jan - 06:16:21 10° W 06:18:02 14° SW 06:19:44 10° SSW visible
23 Jan - 19:38:32 10° S 19:40:56 19° SE 19:43:20 10° E visible
23 Jan - 21:14:32 10° W 21:17:16 24° NW 21:19:59 10° NNE night (unlit)
24 Jan - 03:47:17 10° N 03:49:29 17° NE 03:51:40 10° E night (unlit)
24 Jan - 05:23:05 10° WNW 05:25:59 30° SW 05:28:51 10° SSE visible
24 Jan - 20:21:46 10° WSW 20:24:57 52° NW 20:28:09 10° NNE visible
25 Jan - 04:30:35 10° NW 04:33:50 77° SW 04:37:03 10° SE night (unlit)
25 Jan - 19:29:31 10° SSW 19:32:44 62° SE 19:35:57 10° NE visible
25 Jan - 21:08:39 10° NW 21:09:28 11° NW 21:10:18 10° NNW visible
26 Jan - 03:38:28 10° NNW 03:41:34 43° NE 03:44:41 10° ESE night (unlit)
26 Jan - 18:37:49 10° S 18:40:34 25° SE 18:43:20 10° ENE visible
26 Jan - 20:14:33 10° W 20:17:00 19° NW 20:19:28 10° N visible
27 Jan - 02:46:41 10° NNW 02:49:13 21° NE 02:51:45 10° E night (unlit)
27 Jan - 04:23:00 10° WNW 04:25:36 22° SW 04:28:12 10° S night (unlit)
27 Jan - 17:47:20 10° SE 17:48:28 11° SE 17:49:37 10° ESE daylight
27 Jan - 19:21:33 10° WSW 19:24:38 39° NW 19:27:43 10° NNE visible
28 Jan - 01:55:35 10° NNE 01:56:45 11° NE 01:57:54 10° NE night (unlit)
28 Jan - 03:30:17 10° NW 03:33:27 54° SW 03:36:37 10° SSE night (unlit)
28 Jan - 18:29:04 10° SW 18:32:21 86° SE 18:35:36 10° NE visible
29 Jan - 02:38:00 10° NW 02:41:12 58° NE 02:44:23 10° SE night (unlit)
29 Jan - 17:37:07 10° SSW 17:40:07 34° SE 17:43:07 10° ENE daylight
29 Jan - 19:14:34 10° WNW 19:16:39 16° NW 19:18:44 10° N visible
30 Jan - 01:46:02 10° NNW 01:48:50 26° NE 01:51:37 10° E night (unlit)
30 Jan - 03:22:56 10° W 03:25:08 17° SW 03:27:19 10° S night (unlit)
30 Jan - 16:45:58 10° SSE 16:47:57 15° SE 16:49:56 10° E daylight
30 Jan - 18:21:16 10° WSW 18:24:12 30° NW 18:27:08 10° NNE daylight
